MST,Max TemperatureF,Mean TemperatureF,Min TemperatureF,Max Dew PointF,MeanDew PointF,Min DewpointF,Max Humidity, Mean Humidity, Min Humidity, Max Sea Level PressureIn, Mean Sea Level PressureIn, Min Sea Level PressureIn, Max VisibilityMiles, Mean VisibilityMiles, Min VisibilityMiles, Max Wind SpeedMPH, Mean Wind SpeedMPH, Max Gust SpeedMPH,PrecipitationIn, CloudCover, Events, WindDirDegrees
2013-2-1,37,25,13,24,20,10,88,72,56,30.50,30.32,30.26,10,10,10,21,9,25,0.00,7,,234
2013-2-2,36,19,1,19,8,-3,96,72,47,30.71,30.62,30.42,10,10,9,10,2,13,0.00,0,,109
2013-2-3,29,16,2,16,8,0,88,73,57,30.55,30.40,30.29,10,10,10,7,2,8,0.00,0,,208
2013-2-4,27,13,-2,15,5,-6,87,74,60,30.44,30.38,30.30,10,10,10,7,1,7,0.00,1,,223
2013-2-5,39,20,1,24,12,-3,87,66,44,30.43,30.26,29.96,10,10,10,13,2,16,0.00,5,,98
2013-2-6,38,26,13,30,24,10,88,76,64,30.29,30.06,29.94,10,8,1,15,3,17,T,6,Snow,131
2013-2-7,35,21,6,17,9,1,92,68,43,30.43,30.28,30.17,10,6,0,21,4,23,0.00,3,Fog,97
2013-2-8,41,22,2,30,19,0,92,63,34,30.21,29.86,29.68,10,7,1,20,6,25,0.03,7,Snow,63
2013-2-9,29,23,16,27,23,14,92,84,75,29.81,29.68,29.62,10,4,0,18,5,21,0.07,8,Fog-Snow,249
2013-2-10,28,14,0,18,14,-3,91,76,60,30.17,29.88,29.70,10,7,1,15,5,17,0.01,6,Snow,267
2013-2-11,16,5,-6,5,2,-8,88,71,53,30.42,30.16,29.94,10,6,1,12,3,13,T,7,Snow,259
2013-2-12,20,2,-17,10,-4,-21,87,73,59,30.62,30.52,30.45,10,10,10,8,1,9,0.00,3,,231
2013-2-13,31,23,15,19,14,10,80,69,58,30.42,30.34,30.25,10,10,6,14,5,17,T,7,Snow,85
2013-2-14,34,27,20,21,18,14,92,73,54,30.39,30.27,30.12,10,7,1,22,5,25,0.03,7,Snow,283
2013-2-15,31,19,6,18,14,5,83,73,63,30.61,30.50,30.38,10,10,10,15,4,16,T,5,,262
2013-2-16,37,18,-2,17,6,-6,88,66,44,30.68,30.52,30.32,10,10,10,9,1,12,0.00,0,,175
2013-2-17,35,19,3,23,11,0,88,68,47,30.27,30.03,29.80,10,10,2,22,4,28,T,3,Snow,268
2013-2-18,29,18,7,14,10,2,77,60,42,30.27,30.17,29.95,10,10,7,16,7,21,T,4,Snow,247
2013-2-19,37,20,2,10,4,-3,76,53,29,30.21,30.02,29.69,10,10,10,16,5,22,0.00,0,,68
2013-2-20,34,20,5,19,10,0,80,64,47,29.81,29.72,29.55,10,10,10,13,3,15,0.00,2,,238
2013-2-21,26,19,11,16,13,7,83,73,63,30.07,29.87,29.69,10,10,6,17,7,18,T,8,Snow,257
2013-2-22,25,14,3,14,9,-1,92,74,55,30.24,30.06,29.91,10,6,1,9,3,9,0.01,6,Snow,183
2013-2-23,28,16,3,23,16,1,88,75,62,30.18,29.86,29.69,10,4,0,14,5,16,0.11,8,Fog-Snow,34
2013-2-24,29,16,2,16,12,-2,92,73,53,30.33,29.98,29.76,10,6,1,24,7,30,0.03,6,Snow,269
2013-2-25,27,9,-9,10,-3,-16,83,65,46,30.45,30.26,30.11,10,8,0,8,2,10,0.00,3,,111
2013-2-26,25,18,10,18,14,6,84,76,67,30.40,30.06,29.87,10,5,0,14,6,18,0.00,8,Fog-Snow,262
2013-2-27,22,6,-10,9,1,-13,88,73,57,30.69,30.49,30.21,10,9,2,6,1,7,T,3,Snow,112
2013-2-28,27,7,-14,18,2,-18,86,68,50,30.78,30.65,30.35,10,10,10,9,1,12,T,5,,188